SCP
0 0 0 0 0 0 0 0 0 0 0 0 0 0 0 0 -0 -0 0 0 0 0 0 0 0 0 0 0 1 2 2 1 0 0 0 0 0 0 0 0 0 0 0
0 0 0 0 0 0 0 0 0 0 0 0 0 0 0 0 0 0 0 0 0 0 0 0 0 0 0 0 0 0 0 0 1 0 0 0 0 0 0 0 0 0 0
0 0 0 0 0 0 0 0 0 0 0 0 0 0 0 0 0 0 0 0 0 0 0 0 0 0 0 0 0 0 0 0 0 0 1 0 0 0 0 0 0 0 0
0 0 0 0 0 0 0 0 0 0 0 0 0 0 0 0 0 0 0 0 0 0 0 0 0 0 -0 0 0 0 0 0 0 0 0 0 0 0 0 0 0 0 0
0 0 0 0 0 0 -0 0 0 0 0 0 0 0 0 0 0 0 0 0 0 0 0 0 0 0 0 0 0 0 0 0 0 0 0 0 0 0 0 0 0 0 0
0 0 0 0 0 0 0 0 0 0 0 0 0 0 0 0 0 0 0 0 0 0 0 0 0 0 0 0 0 0 0 0 0 0 0 0 1 0 0 0 0 0 0
0 0 0 0 0 0 0 0 0 0 0 0 0 0 0 0 0 0 0 0 0 0 0 0 0 0 0 0 0 0 0 0 0 0 0 0 0 0 0 0 0 0 0
0 0 0 0 0 0 0 0 0 0 0 0 0 0 0 0 0 0 0 0 0 0 0 0 0 0 0 0 0 0 0 0 0 0 0 0 0 0 0 0 0 0 0
0 0 0 0 0 0 0 0 0 0 0 0 0 0 0 0 0 0 0 0 0 0 0 0 0 0 0 0 0 0 0 0 -0 0 0 0 0 0 0 0 0 0 0
0 0 0 0 0 0 0 0 0 0 0 0 0 0 0 0 0 0 0 0 0 0 0 0 0 0 0 0 0 0 0 -0 -0 -0 -0 -0 -0 0 0 0 0 0 0
0 0 0 0 0 0 0 0 0 0 0 0 0 0 0 0 0 0 0 0 0 0 0 0 0 0 0 0 0 0 0 0 0 0 -0 -0 0 0 0 0 0 0 0
0 0 0 0 0 0 0 0 0 0 0 0 0 0 0 0 0 0 0 0 0 0 0 0 0 0 0 0 0 0 0 0 0 0 0 0 0 0 0 0 0 0 0
0 0 0 0 0 0 0 0 0 0 0 0 0 0 0 0 0 0 0 0 0 0 0 0 0 0 0 0 0 0 0 0 0 0 0 0 0 0 0 0 0 0 0
0 0 0 0 0 0 0 0 0 0 0 0 0 0 0 0 0 0 0 0 0 0 0 0 0 0 0 0 0 0 0 0 0 0 0 0 0 0 0 0 0 0 0
0 0 0 0 0 0 0 0 0 0 0 0 0 0 0 0 0 0 0 0 0 0 0 0 0 0 0 0 0 0 0 0 0 0 0 0 0 0 0 0 0 0 0
0 0 0 0 0 0 0 0 0 0 0 0 0 0 0 0 0 0 0 0 0 0 0 -0 -0 0 0 0 0 0 0 0 0 0 0 0 0 0 0 0 0 0 0
0 0 0 0 0 0 0 0 0 0 0 0 0 0 0 0 0 0 0 0 0 0 0 0 0 0 0 0 0 0 0 0 0 0 0 0 0 0 0 0 0 0 0
0 0 0 0 0 0 0 0 0 0 0 0 0 0 0 0 0 0 0 0 0 0 0 0 -0 -0 0 0 -0 -0 -0 -0 -0 0 0 0 0 -0 0 0 0 0 0
0 0 0 0 0 0 0 0 0 -0 -0 0 0 0 0 0 0 0 0 0 0 0 0 0 -0 0 0 -0 -0 -0 -0 -0 -0 -0 -0 -0 -0 0 -0 0 0 0 0
0 0 0 0 0 0 0 0 0 -0 0 -0 0 0 0 0 0 0 -0 0 -0 -0 -0 0 0 0 0 -0 0 0 -0 -0 -0 -0 -0 -0 -0 0 0 0 0 0 0
0 0 0 0 0 0 0 0 -0 -0 0 -0 -0 -0 -0 -0 -0 -0 -0 -0 -0 0 0 0 0 0 0 -0 -0 0 0 0 0 -0 -0 -0 -0 -0 -0 -0 -0 -0 0
0 0 0 0 0 0 0 -0 -0 -0 -0 0 0 -0 -0 -0 -0 -0 -0 -0 -0 -0 0 0 0 0 0 -0 -0 -0 -0 -0 -0 0 0 0 0 0 0 -0 -0 -0 0
-0 0 -0 0 0 -0 -0 0 -0 -0 0 -0 -0 -0 -0 -0 -0 -0 -0 -0 -0 -0 -0 -0 0 0 -0 -0 -0 -0 -0 -0 0 0 -0 -0 0 0 0 -0 -0 -0 0
0 0 0 0 -0 -0 0 0 0 -0 -0 -0 -0 -0 -0 -0 -0 -0 -0 -0 -0 -0 -0 0 0 0 -0 0 0 -0 -0 0 0 -0 -0 -0 -0 -0 0 -0 0 0 0
0 0 0 -0 -0 0 0 0 -0 -0 -0 -0 -0 -0 -0 -0 -0 -0 0 0 -0 0 0 -0 -0 -0 0 -0 -0 0 0 -0 -0 -0 0 0 0 0 0 0 0 0 0
0 0 -0 -0 0 0 -0 -0 -0 -0 -0 -0 -0 -0 -0 0 0 0 0 -0 0 -0 0 0 -0 -0 -0 0 0 0 -0 -0 -0 0 0 0 0 0 0 0 0 0 0
Wind_Speed_500mb
28 23 20 16 10 2 6 15 27 35 41 47 47 51 55 61 64 59 56 57 56 57 59 60 55 53 48 56 62 54 57 53 68 50 42 57 49 40 32 28 33 32 40
39 33 25 16 9 7 17 25 29 33 28 29 37 40 44 45 44 44 45 46 52 55 58 63 58 51 55 45 49 46 58 56 56 54 49 41 46 44 34 30 33 39 45
34 26 17 4 8 17 25 28 28 26 31 35 35 41 43 42 42 43 47 48 49 50 54 59 60 54 53 49 38 41 55 59 51 53 50 19 28 35 44 37 38 39 39
19 11 6 12 18 20 20 21 27 35 40 40 40 41 42 44 44 45 49 53 54 55 54 55 55 52 49 50 31 32 41 50 54 54 55 56 50 17 20 33 38 44 43
9 7 12 16 21 24 27 32 37 36 35 36 35 39 41 46 49 51 57 62 64 64 62 61 52 49 44 43 37 25 23 30 39 45 44 42 39 38 35 30 41 44 52
6 9 14 19 26 26 31 35 43 40 35 34 37 42 43 50 56 60 66 70 71 69 65 69 57 45 43 38 38 23 28 22 27 33 37 34 27 25 26 28 44 50 49
6 12 16 24 29 32 36 39 43 39 42 47 51 61 68 64 65 67 68 70 70 70 68 65 56 50 44 40 35 33 21 18 23 31 40 49 51 46 45 37 47 47 38
11 19 25 34 38 43 45 44 43 49 53 59 68 75 77 75 71 73 74 71 71 66 61 54 47 47 45 44 38 36 34 32 32 27 29 30 35 41 38 33 33 36 31
16 23 31 36 43 45 49 59 66 72 71 70 75 77 74 76 77 79 72 66 66 58 51 43 42 42 44 38 39 35 41 40 34 33 33 32 27 32 32 28 28 25 17
14 23 29 33 38 47 59 69 69 72 68 71 79 72 71 84 80 66 59 58 62 47 44 36 36 38 37 34 33 32 34 36 40 38 30 29 26 24 24 22 23 24 29
19 20 23 31 45 58 71 76 70 70 74 84 66 66 78 70 51 50 53 56 47 37 37 33 30 30 30 30 28 24 19 21 26 24 16 13 14 14 15 16 21 22 22
19 24 29 43 59 68 75 78 69 69 73 67 58 62 61 58 53 49 49 49 37 32 31 27 22 24 26 22 20 16 14 11 8 8 7 6 7 11 15 16 17 20 17
28 30 41 52 61 68 79 72 68 67 60 56 48 51 51 59 55 48 43 37 29 22 20 18 18 20 19 17 14 14 13 12 12 9 8 7 10 16 16 16 14 13 14
37 38 46 52 63 75 74 70 67 57 54 47 41 46 52 49 40 35 32 25 16 17 12 11 11 14 13 14 14 15 14 14 14 16 16 16 17 17 14 14 9 7 7
44 42 47 58 69 80 73 68 64 56 48 38 40 40 38 42 33 29 20 17 14 12 13 12 12 13 14 13 15 15 12 11 15 18 21 18 14 8 13 13 13 13 6
48 45 47 61 72 77 71 66 63 49 39 40 40 27 37 32 25 23 18 13 15 17 16 19 23 23 21 16 17 17 16 14 14 22 33 17 11 8 5 10 14 15 17
49 46 53 64 75 76 63 61 44 40 36 33 28 37 28 20 22 21 18 13 11 18 22 25 25 23 22 19 22 24 22 14 19 33 27 28 18 17 17 15 11 19 21
49 52 59 71 74 68 57 41 36 36 30 29 31 21 19 22 27 29 26 32 31 29 26 24 22 22 22 25 24 30 24 24 22 24 24 26 32 29 27 31 35 34 31
51 54 58 63 73 57 40 30 31 33 33 26 19 22 22 26 27 27 24 25 28 28 27 27 31 29 26 26 29 33 24 19 20 20 20 23 24 25 25 27 29 26 26
57 57 53 67 52 42 24 28 30 31 24 22 30 32 28 31 27 24 25 24 23 27 29 28 29 27 25 27 26 26 25 29 28 21 21 21 13 17 22 25 22 20 25
54 46 54 49 44 28 23 21 24 22 21 31 32 27 23 22 26 29 28 22 33 30 28 23 22 22 22 22 21 18 17 16 18 21 22 23 20 17 20 21 25 28 25
53 42 39 44 27 17 15 16 20 29 34 27 22 23 32 31 33 35 34 28 26 24 26 31 28 27 26 27 26 22 23 19 17 19 20 23 20 19 17 20 23 24 23
40 32 37 27 22 12 13 24 38 29 22 24 24 27 28 31 33 31 29 28 27 24 31 31 30 29 26 24 18 22 21 16 17 20 20 16 12 14 14 19 20 18 20
37 30 22 20 21 27 37 42 30 27 28 26 29 32 34 34 31 31 30 29 28 31 36 29 38 35 29 26 22 20 19 17 15 15 12 13 13 13 13 15 18 20 22
34 25 22 21 31 46 41 37 33 31 30 33 36 33 30 29 30 29 28 25 21 23 27 26 40 40 32 33 26 18 17 16 15 12 13 18 17 17 19 20 21 20 20
24 21 21 31 45 38 39 34 29 26 25 25 27 26 29 26 28 27 35 28 25 18 23 25 36 35 29 25 19 24 26 26 17 15 18 21 19 21 20 22 23 22 27
Wind_Direction_500mb
130 140 133 120 116 169 285 325 341 338 331 331 340 343 345 339 333 333 328 328 334 333 332 330 324 310 299 283 265 252 243 247 247 247 244 250 249 254 261 275 295 296 294
120 126 135 156 199 298 338 342 337 335 341 345 347 347 342 341 342 339 343 333 331 335 336 332 328 318 311 292 267 253 240 238 239 241 234 241 244 241 248 270 288 294 297
132 144 160 138 354 336 335 333 332 335 331 331 333 331 329 331 336 345 345 343 340 331 330 333 332 326 318 318 276 251 246 244 235 235 230 216 244 263 266 266 287 288 293
145 123 59 6 359 354 349 344 337 329 324 325 323 324 326 328 328 331 331 334 333 336 336 328 328 330 322 318 315 262 242 248 247 234 229 240 246 251 275 278 281 290 300
127 76 32 29 17 10 7 356 344 330 320 319 316 313 313 315 317 319 318 320 323 329 332 332 322 321 325 316 297 291 244 228 230 227 220 217 231 243 259 271 285 290 300
104 52 32 23 12 4 353 345 337 329 326 324 326 323 316 314 312 312 311 312 314 319 322 327 318 309 311 310 306 282 270 249 227 216 218 234 245 269 263 272 284 293 301
27 19 17 4 356 346 340 335 330 323 327 326 324 322 319 311 307 308 307 307 309 312 316 320 312 311 304 309 300 293 269 260 256 259 261 264 266 270 271 275 273 286 299
8 9 358 348 339 336 334 333 327 322 319 315 316 318 315 311 309 309 306 303 303 305 307 307 302 305 305 302 303 294 281 293 298 287 274 265 262 270 274 269 272 282 283
3 350 338 332 330 331 331 329 323 318 316 314 316 314 310 309 310 312 302 300 298 295 295 296 297 302 303 304 301 296 284 283 297 295 294 291 282 279 275 264 262 252 265
323 315 320 325 329 328 327 327 321 317 313 310 313 310 310 311 309 306 306 301 303 294 291 292 298 303 313 316 313 305 298 287 286 294 294 289 290 281 275 275 266 249 237
302 303 316 328 326 327 331 329 318 312 306 309 311 307 313 323 320 316 312 310 307 294 288 293 296 314 317 315 310 311 313 305 293 289 292 286 294 287 290 288 278 260 239
292 304 316 326 333 332 330 327 321 311 311 313 312 309 320 322 319 312 313 314 298 310 299 295 295 309 309 310 309 311 313 325 312 303 323 342 327 319 321 307 286 273 260
292 297 318 328 331 330 331 329 324 322 322 317 317 320 321 324 321 317 317 305 317 319 323 314 307 308 314 312 315 326 333 344 349 354 343 351 350 351 335 325 311 281 264
292 299 318 322 328 332 333 330 329 329 330 326 323 327 326 333 336 331 331 328 331 325 326 319 312 322 328 332 335 337 343 351 2 9 3 357 356 356 354 354 341 313 243
288 302 312 323 330 334 332 330 329 328 332 331 332 329 324 329 335 343 342 344 341 6 4 360 354 2 15 31 30 22 17 13 24 31 30 27 13 33 23 18 49 44 77
291 307 313 324 330 332 331 329 330 333 326 327 331 342 335 336 347 2 6 20 48 65 46 43 55 58 50 59 36 30 45 54 66 65 62 60 100 95 79 71 65 77 85
295 308 314 322 327 330 329 328 334 339 340 335 332 342 344 8 25 27 17 2 36 51 74 57 45 41 39 37 30 24 29 60 85 77 76 67 101 105 95 80 90 113 112
299 304 312 318 325 326 327 333 334 341 341 335 342 359 34 62 63 53 51 65 51 47 46 46 52 50 54 55 46 28 59 79 79 94 75 68 74 84 94 95 93 95 98
302 304 311 318 323 325 328 337 354 350 352 3 28 58 79 71 59 54 54 58 57 51 52 58 63 53 62 62 48 43 59 74 88 83 87 85 81 84 85 77 80 77 74
311 311 314 322 324 328 335 334 357 355 17 60 83 80 55 67 64 57 62 66 65 70 69 70 66 65 59 59 59 52 51 80 80 92 77 63 58 70 65 65 55 51 46
316 310 313 322 326 334 338 346 1 28 72 95 85 70 60 51 61 52 61 79 77 65 55 69 67 60 57 58 53 45 63 74 83 76 74 61 60 61 65 53 38 35 34
320 312 311 325 339 347 7 31 57 89 93 71 59 51 59 71 61 62 54 52 54 55 61 52 58 48 49 47 63 73 57 54 64 59 67 55 48 50 36 32 26 17 25
337 329 317 342 357 33 59 86 103 86 59 71 71 69 63 61 72 58 60 63 62 69 77 49 48 40 42 45 45 40 40 53 52 58 68 62 36 35 40 11 15 39 78
352 355 10 26 59 81 100 95 82 75 79 77 77 75 77 73 60 64 62 61 63 62 69 52 45 46 56 52 56 45 37 59 63 56 34 31 19 10 44 67 78 83 86
12 22 41 76 96 108 94 88 88 87 87 81 77 83 72 66 65 60 53 50 60 60 62 49 39 43 54 44 42 57 67 50 40 49 52 51 60 79 80 88 87 87 85
20 49 78 104 117 104 99 98 93 92 87 90 92 79 69 69 55 58 47 53 53 58 65 61 40 38 49 46 51 47 36 38 40 72 62 69 79 86 89 93 95 88 93
Wind_Speed_850mb
28 23 20 16 10 2 6 15 27 35 41 47 47 51 55 61 64 59 56 57 56 57 59 60 55 53 48 56 62 54 57 53 68 50 42 57 49 40 32 28 33 32 40
39 33 25 16 9 7 17 25 29 33 28 29 37 40 44 45 44 44 45 46 52 55 58 63 58 51 55 45 49 46 58 56 56 54 49 41 46 44 34 30 33 39 45
34 26 17 4 8 17 25 28 28 26 31 35 35 41 43 42 42 43 47 48 49 50 54 59 60 54 53 49 38 41 55 59 51 53 50 19 28 35 44 37 38 39 39
19 11 6 12 18 20 20 21 27 35 40 40 40 41 42 44 44 45 49 53 54 55 54 55 55 52 49 50 31 32 41 50 54 54 55 56 50 17 20 33 38 44 43
9 7 12 16 21 24 27 32 37 36 35 36 35 39 41 46 49 51 57 62 64 64 62 61 52 49 44 43 37 25 23 30 39 45 44 42 39 38 35 30 41 44 52
6 9 14 19 26 26 31 35 43 40 35 34 37 42 43 50 56 60 66 70 71 69 65 69 57 45 43 38 38 23 28 22 27 33 37 34 27 25 26 28 44 50 49
6 12 16 24 29 32 36 39 43 39 42 47 51 61 68 64 65 67 68 70 70 70 68 65 56 50 44 40 35 33 21 18 23 31 40 49 51 46 45 37 47 47 38
11 19 25 34 38 43 45 44 43 49 53 59 68 75 77 75 71 73 74 71 71 66 61 54 47 47 45 44 38 36 34 32 32 27 29 30 35 41 38 33 33 36 31
16 23 31 36 43 45 49 59 66 72 71 70 75 77 74 76 77 79 72 66 66 58 51 43 42 42 44 38 39 35 41 40 34 33 33 32 27 32 32 28 28 25 17
14 23 29 33 38 47 59 69 69 72 68 71 79 72 71 84 80 66 59 58 62 47 44 36 36 38 37 34 33 32 34 36 40 38 30 29 26 24 24 22 23 24 29
19 20 23 31 45 58 71 76 70 70 74 84 66 66 78 70 51 50 53 56 47 37 37 33 30 30 30 30 28 24 19 21 26 24 16 13 14 14 15 16 21 22 22
19 24 29 43 59 68 75 78 69 69 73 67 58 62 61 58 53 49 49 49 37 32 31 27 22 24 26 22 20 16 14 11 8 8 7 6 7 11 15 16 17 20 17
28 30 41 52 61 68 79 72 68 67 60 56 48 51 51 59 55 48 43 37 29 22 20 18 18 20 19 17 14 14 13 12 12 9 8 7 10 16 16 16 14 13 14
37 38 46 52 63 75 74 70 67 57 54 47 41 46 52 49 40 35 32 25 16 17 12 11 11 14 13 14 14 15 14 14 14 16 16 16 17 17 14 14 9 7 7
44 42 47 58 69 80 73 68 64 56 48 38 40 40 38 42 33 29 20 17 14 12 13 12 12 13 14 13 15 15 12 11 15 18 21 18 14 8 13 13 13 13 6
48 45 47 61 72 77 71 66 63 49 39 40 40 27 37 32 25 23 18 13 15 17 16 19 23 23 21 16 17 17 16 14 14 22 33 17 11 8 5 10 14 15 17
49 46 53 64 75 76 63 61 44 40 36 33 28 37 28 20 22 21 18 13 11 18 22 25 25 23 22 19 22 24 22 14 19 33 27 28 18 17 17 15 11 19 21
49 52 59 71 74 68 57 41 36 36 30 29 31 21 19 22 27 29 26 32 31 29 26 24 22 22 22 25 24 30 24 24 22 24 24 26 32 29 27 31 35 34 31
51 54 58 63 73 57 40 30 31 33 33 26 19 22 22 26 27 27 24 25 28 28 27 27 31 29 26 26 29 33 24 19 20 20 20 23 24 25 25 27 29 26 26
57 57 53 67 52 42 24 28 30 31 24 22 30 32 28 31 27 24 25 24 23 27 29 28 29 27 25 27 26 26 25 29 28 21 21 21 13 17 22 25 22 20 25
54 46 54 49 44 28 23 21 24 22 21 31 32 27 23 22 26 29 28 22 33 30 28 23 22 22 22 22 21 18 17 16 18 21 22 23 20 17 20 21 25 28 25
53 42 39 44 27 17 15 16 20 29 34 27 22 23 32 31 33 35 34 28 26 24 26 31 28 27 26 27 26 22 23 19 17 19 20 23 20 19 17 20 23 24 23
40 32 37 27 22 12 13 24 38 29 22 24 24 27 28 31 33 31 29 28 27 24 31 31 30 29 26 24 18 22 21 16 17 20 20 16 12 14 14 19 20 18 20
37 30 22 20 21 27 37 42 30 27 28 26 29 32 34 34 31 31 30 29 28 31 36 29 38 35 29 26 22 20 19 17 15 15 12 13 13 13 13 15 18 20 22
34 25 22 21 31 46 41 37 33 31 30 33 36 33 30 29 30 29 28 25 21 23 27 26 40 40 32 33 26 18 17 16 15 12 13 18 17 17 19 20 21 20 20
24 21 21 31 45 38 39 34 29 26 25 25 27 26 29 26 28 27 35 28 25 18 23 25 36 35 29 25 19 24 26 26 17 15 18 21 19 21 20 22 23 22 27
Wind_Direction_850mb
130 140 133 120 116 169 285 325 341 338 331 331 340 343 345 339 333 333 328 328 334 333 332 330 324 310 299 283 265 252 243 247 247 247 244 250 249 254 261 275 295 296 294
120 126 135 156 199 298 338 342 337 335 341 345 347 347 342 341 342 339 343 333 331 335 336 332 328 318 311 292 267 253 240 238 239 241 234 241 244 241 248 270 288 294 297
132 144 160 138 354 336 335 333 332 335 331 331 333 331 329 331 336 345 345 343 340 331 330 333 332 326 318 318 276 251 246 244 235 235 230 216 244 263 266 266 287 288 293
145 123 59 6 359 354 349 344 337 329 324 325 323 324 326 328 328 331 331 334 333 336 336 328 328 330 322 318 315 262 242 248 247 234 229 240 246 251 275 278 281 290 300
127 76 32 29 17 10 7 356 344 330 320 319 316 313 313 315 317 319 318 320 323 329 332 332 322 321 325 316 297 291 244 228 230 227 220 217 231 243 259 271 285 290 300
104 52 32 23 12 4 353 345 337 329 326 324 326 323 316 314 312 312 311 312 314 319 322 327 318 309 311 310 306 282 270 249 227 216 218 234 245 269 263 272 284 293 301
27 19 17 4 356 346 340 335 330 323 327 326 324 322 319 311 307 308 307 307 309 312 316 320 312 311 304 309 300 293 269 260 256 259 261 264 266 270 271 275 273 286 299
8 9 358 348 339 336 334 333 327 322 319 315 316 318 315 311 309 309 306 303 303 305 307 307 302 305 305 302 303 294 281 293 298 287 274 265 262 270 274 269 272 282 283
3 350 338 332 330 331 331 329 323 318 316 314 316 314 310 309 310 312 302 300 298 295 295 296 297 302 303 304 301 296 284 283 297 295 294 291 282 279 275 264 262 252 265
323 315 320 325 329 328 327 327 321 317 313 310 313 310 310 311 309 306 306 301 303 294 291 292 298 303 313 316 313 305 298 287 286 294 294 289 290 281 275 275 266 249 237
302 303 316 328 326 327 331 329 318 312 306 309 311 307 313 323 320 316 312 310 307 294 288 293 296 314 317 315 310 311 313 305 293 289 292 286 294 287 290 288 278 260 239
292 304 316 326 333 332 330 327 321 311 311 313 312 309 320 322 319 312 313 314 298 310 299 295 295 309 309 310 309 311 313 325 312 303 323 342 327 319 321 307 286 273 260
292 297 318 328 331 330 331 329 324 322 322 317 317 320 321 324 321 317 317 305 317 319 323 314 307 308 314 312 315 326 333 344 349 354 343 351 350 351 335 325 311 281 264
292 299 318 322 328 332 333 330 329 329 330 326 323 327 326 333 336 331 331 328 331 325 326 319 312 322 328 332 335 337 343 351 2 9 3 357 356 356 354 354 341 313 243
288 302 312 323 330 334 332 330 329 328 332 331 332 329 324 329 335 343 342 344 341 6 4 360 354 2 15 31 30 22 17 13 24 31 30 27 13 33 23 18 49 44 77
291 307 313 324 330 332 331 329 330 333 326 327 331 342 335 336 347 2 6 20 48 65 46 43 55 58 50 59 36 30 45 54 66 65 62 60 100 95 79 71 65 77 85
295 308 314 322 327 330 329 328 334 339 340 335 332 342 344 8 25 27 17 2 36 51 74 57 45 41 39 37 30 24 29 60 85 77 76 67 101 105 95 80 90 113 112
299 304 312 318 325 326 327 333 334 341 341 335 342 359 34 62 63 53 51 65 51 47 46 46 52 50 54 55 46 28 59 79 79 94 75 68 74 84 94 95 93 95 98
302 304 311 318 323 325 328 337 354 350 352 3 28 58 79 71 59 54 54 58 57 51 52 58 63 53 62 62 48 43 59 74 88 83 87 85 81 84 85 77 80 77 74
311 311 314 322 324 328 335 334 357 355 17 60 83 80 55 67 64 57 62 66 65 70 69 70 66 65 59 59 59 52 51 80 80 92 77 63 58 70 65 65 55 51 46
316 310 313 322 326 334 338 346 1 28 72 95 85 70 60 51 61 52 61 79 77 65 55 69 67 60 57 58 53 45 63 74 83 76 74 61 60 61 65 53 38 35 34
320 312 311 325 339 347 7 31 57 89 93 71 59 51 59 71 61 62 54 52 54 55 61 52 58 48 49 47 63 73 57 54 64 59 67 55 48 50 36 32 26 17 25
337 329 317 342 357 33 59 86 103 86 59 71 71 69 63 61 72 58 60 63 62 69 77 49 48 40 42 45 45 40 40 53 52 58 68 62 36 35 40 11 15 39 78
352 355 10 26 59 81 100 95 82 75 79 77 77 75 77 73 60 64 62 61 63 62 69 52 45 46 56 52 56 45 37 59 63 56 34 31 19 10 44 67 78 83 86
12 22 41 76 96 108 94 88 88 87 87 81 77 83 72 66 65 60 53 50 60 60 62 49 39 43 54 44 42 57 67 50 40 49 52 51 60 79 80 88 87 87 85
20 49 78 104 117 104 99 98 93 92 87 90 92 79 69 69 55 58 47 53 53 58 65 61 40 38 49 46 51 47 36 38 40 72 62 69 79 86 89 93 95 88 93